sat.trackr.live / text

‹ back to catalog

STARLINK-30841

NORAD 58208 · 2023-170C

PAYLOAD ACTIVE UNKNOWN

§ Identity

Operator
Country
US
Launch date
2023-11-03
Launch site
AFETR
Launch vehicle
Mass (kg)
RCS (m²)

Purposes: comms

External: N2YO · Heavens-Above · Gunter

§ Orbital elements

Epoch: 2026-05-24T23:25:24.337632Z

Period
94.27 min
Inclination
43.0036°
Eccentricity
0.0001447
Mean motion
15.27578189 rev/d
Perigee alt
482.1 km
Apogee alt
484.0 km
Semi-major
6,861.2 km
B*
3.8040e-6
RAAN
123.6269°
Arg perigee
280.7434°
Mean anomaly
79.3255°
Rev number
14,196

§ Raw data

STARLINK-308411 58208U 23170C   26144.97597613 -.00000158  00000+0  38040-5 0  99942 58208  43.0036 123.6269 0001447 280.7434  79.3255 15.27578189141969

JSON: /api/v1/satellites/58208 · /tle

For live sub-satellite position, see the globe view (requires WebGL).

§ Visibility from observer

Set your observer location to see the next 7 days of passes ≥ 10°. The values pass through the URL so the page stays shareable.

No JS? Fill the form by hand. The geolocation button needs JavaScript.